TimeCDT,TemperatureF,Dew PointF,Humidity,Sea Level PressureIn,VisibilityMPH,Wind Direction,Wind SpeedMPH,Gust SpeedMPH,PrecipitationIn,Events,Conditions,WindDirDegrees,DateUTC
12:34 AM,69.8,55.4,60,29.94,10.0,West,15.0,19.6,N/A,Thunderstorm,Mostly Cloudy,280,2011-10-08 05:34:00
2:56 AM,69.1,57.0,65,29.87,10.0,SSE,13.8,21.9,0.01,,Scattered Clouds,150,2011-10-08 07:56:00
3:56 AM,66.9,55.9,68,29.92,5.0,South,16.1,24.2,0.02,Rain-Thunderstorm,Light Thunderstorms and Rain,180,2011-10-08 08:56:00
4:21 AM,64.4,57.2,77,29.94,10.0,South,9.2,-,0.07,,Overcast,170,2011-10-08 09:21:00
4:47 AM,64.4,57.2,77,29.95,10.0,South,9.2,-,0.07,Thunderstorm,Mostly Cloudy,170,2011-10-08 09:47:00
4:56 AM,64.0,55.9,75,29.91,10.0,South,9.2,-,0.07,,Mostly Cloudy,180,2011-10-08 09:56:00
5:28 AM,62.6,57.2,82,29.93,10.0,SSE,6.9,-,0.01,Rain-Thunderstorm,Light Thunderstorms and Rain,150,2011-10-08 10:28:00
5:43 AM,62.6,57.2,82,29.94,10.0,South,4.6,-,0.01,,Mostly Cloudy,170,2011-10-08 10:43:00
5:56 AM,62.1,57.9,86,29.91,10.0,SSE,4.6,-,0.01,,Mostly Cloudy,160,2011-10-08 10:56:00
6:56 AM,62.1,60.1,93,29.96,7.0,SSW,9.2,-,0.03,Rain,Rain,200,2011-10-08 11:56:00
7:56 AM,62.1,59.0,90,29.94,10.0,ESE,5.8,-,0.03,,Overcast,120,2011-10-08 12:56:00
8:56 AM,62.1,59.0,90,29.96,10.0,SE,3.5,-,N/A,Thunderstorm,Overcast,140,2011-10-08 13:56:00
9:15 AM,62.6,59.0,88,30.00,9.0,West,8.1,-,0.01,Rain,Light Rain,280,2011-10-08 14:15:00
9:56 AM,63.0,60.1,90,29.98,10.0,WNW,3.5,-,0.02,,Overcast,290,2011-10-08 14:56:00
10:29 AM,64.4,60.8,88,30.01,10.0,Calm,Calm,-,N/A,,Overcast,0,2011-10-08 15:29:00
10:56 AM,64.9,60.1,84,29.99,10.0,Calm,Calm,-,0.00,Rain,Light Rain,0,2011-10-08 15:56:00
11:56 AM,66.0,57.0,73,30.02,10.0,South,8.1,-,0.00,,Overcast,180,2011-10-08 16:56:00
12:56 PM,68.0,57.0,68,30.03,10.0,South,8.1,-,N/A,,Overcast,180,2011-10-08 17:56:00
1:56 PM,71.1,57.0,61,30.01,10.0,SSW,8.1,-,N/A,,Scattered Clouds,200,2011-10-08 18:56:00
2:56 PM,73.0,55.9,55,29.99,10.0,Calm,Calm,-,N/A,,Partly Cloudy,0,2011-10-08 19:56:00
3:56 PM,72.0,55.9,57,29.98,10.0,Calm,Calm,-,N/A,,Overcast,0,2011-10-08 20:56:00
4:56 PM,72.0,55.9,57,29.99,10.0,East,9.2,-,N/A,,Overcast,100,2011-10-08 21:56:00
5:56 PM,72.0,57.0,59,29.97,10.0,East,11.5,-,N/A,,Overcast,80,2011-10-08 22:56:00
7:56 PM,70.0,55.9,61,30.00,10.0,SE,8.1,18.4,0.00,,Overcast,140,2011-10-09 00:56:00
8:56 PM,70.0,55.0,59,29.99,10.0,ESE,13.8,-,0.00,,Overcast,120,2011-10-09 01:56:00
9:56 PM,69.1,57.9,68,30.01,10.0,SSE,9.2,-,N/A,,Overcast,160,2011-10-09 02:56:00
10:56 PM,66.9,57.9,73,30.05,10.0,SW,6.9,-,N/A,,Overcast,230,2011-10-09 03:56:00
11:56 PM,66.0,57.0,73,30.06,10.0,WSW,4.6,-,N/A,,Overcast,250,2011-10-09 04:56:00